SCP
0 0 0 0 0 0 0 0 0 0 0 0 0 0 -0 0 0 0 0 0 0 0 0 0 -0 -0 -0 -0 -0 -0 -0 -0 -0 -0 -0 -0 -0 -0 -0 -0 -0 -0 -0 -0 -0 -0 -0 -0 -0
0 0 0 0 0 0 0 0 0 0 0 0 0 0 0 0 0 0 0 -0 0 0 0 0 -0 -0 -0 -0 -0 -0 -0 -0 -0 -0 -0 -0 -0 -0 -0 -0 -0 -0 -0 -0 -0 -0 -0 -0 -0
0 0 0 0 0 0 0 0 0 0 0 0 0 0 0 0 0 0 0 0 0 0 0 0 0 -0 -0 -0 -0 -0 -0 -0 -0 -0 -0 -0 -0 -0 -0 -0 -0 -0 -0 -0 -0 -0 -0 -0 -0
0 0 0 0 0 0 0 0 0 0 0 0 0 0 0 0 0 0 0 0 0 0 0 0 0 0 0 0 -0 -0 -0 -0 -0 -0 -0 -0 -0 -0 -0 -0 -0 -0 -0 -0 -0 -0 -0 -0 -0
0 0 0 0 0 0 0 0 0 0 0 0 0 0 0 0 0 -0 0 0 0 0 0 0 0 0 0 0 0 0 -0 -0 -0 -0 -0 -0 -0 -0 -0 -0 -0 -0 -0 -0 -0 -0 -0 -0 -0
0 0 0 0 0 0 0 0 0 0 0 0 0 0 0 0 0 0 0 0 0 0 0 0 0 0 0 0 0 0 0 0 0 -0 -0 -0 -0 -0 -0 -0 -0 -0 -0 -0 -0 0 0 -0 -0
0 0 0 0 0 0 0 0 0 0 0 0 0 0 0 0 0 0 0 0 0 0 0 0 0 0 0 0 0 0 0 0 0 0 -0 0 0 0 -0 -0 -0 -0 0 -0 -0 0 0 0 0
0 0 0 0 0 0 0 0 0 0 0 0 0 0 0 0 0 0 0 0 0 0 0 0 0 0 0 0 0 0 0 0 0 0 0 0 0 0 0 0 -0 0 0 0 -0 0 0 0 0
0 0 0 0 0 0 0 0 0 0 0 0 0 0 0 0 0 0 0 0 0 0 0 0 0 0 0 0 0 0 0 0 0 0 0 0 0 0 0 0 0 0 0 0 0 0 0 0 0
0 0 0 0 0 0 0 0 0 0 0 0 0 0 0 0 0 0 0 0 0 0 0 0 0 0 0 0 0 0 0 0 0 0 0 0 0 0 0 0 0 0 0 0 0 0 0 0 0
0 0 0 0 0 0 0 0 0 0 0 0 0 0 0 0 0 0 0 0 0 0 0 0 0 0 0 0 0 0 0 0 0 0 0 0 0 0 0 0 0 0 0 0 0 0 0 0 0
0 0 0 0 0 0 0 0 0 0 0 0 0 0 0 0 0 0 0 0 0 0 0 0 0 0 0 0 0 0 0 0 0 0 0 0 0 0 0 0 0 0 0 0 0 0 0 0 0
0 0 0 0 0 0 0 0 0 0 0 0 0 0 0 0 0 0 0 0 0 0 0 0 0 0 0 0 0 0 0 0 0 0 0 0 0 0 0 0 0 0 0 0 0 0 0 0 0
0 0 0 0 0 0 0 0 0 0 0 0 0 0 0 0 0 0 0 0 0 0 0 0 0 0 0 0 0 0 0 0 0 0 0 0 0 0 0 0 0 0 0 0 0 0 0 0 0
0 0 0 0 0 0 0 0 0 0 0 0 0 0 0 0 0 0 0 0 0 0 0 0 0 0 0 0 0 0 0 0 0 0 0 0 0 0 0 0 0 0 0 0 0 0 0 0 0
0 0 0 0 0 0 0 0 0 0 0 0 0 0 0 0 0 0 0 0 0 0 0 0 0 0 0 0 0 0 0 0 0 0 0 0 0 0 0 0 0 0 0 0 0 0 0 0 0
0 0 0 0 0 0 0 0 0 0 0 0 0 0 0 0 0 0 0 0 0 0 0 0 0 0 0 0 0 0 0 0 0 0 0 0 0 0 0 0 0 0 0 0 0 0 0 0 0
0 0 0 0 0 0 0 0 0 0 0 0 0 0 0 0 0 0 0 0 0 0 0 0 0 0 0 0 0 0 0 0 0 0 0 0 0 0 0 0 0 0 0 0 0 0 0 0 0
0 0 0 0 0 0 0 0 0 0 0 0 0 0 0 0 0 0 0 0 0 0 0 0 0 0 0 0 0 0 0 0 0 0 0 0 0 0 0 0 0 0 0 0 0 0 0 0 0
0 0 0 0 0 0 0 0 0 0 0 0 0 0 0 0 0 0 0 0 0 0 0 0 0 0 0 0 0 0 0 0 0 0 0 0 0 0 0 0 0 0 0 0 0 0 0 0 0
0 0 0 0 0 0 0 0 0 0 0 0 0 0 0 0 0 0 0 0 0 0 0 0 0 0 0 0 0 0 0 0 0 0 0 0 0 0 0 0 0 0 0 0 0 0 0 0 0
0 0 0 0 0 0 0 0 0 0 0 0 0 0 0 0 0 0 0 0 0 0 0 0 0 0 0 0 0 0 0 0 0 0 0 0 0 0 0 0 0 0 0 0 0 0 0 0 0
0 0 0 0 0 0 0 0 0 0 0 0 0 0 0 0 0 0 0 0 0 0 0 0 0 0 0 0 0 0 0 0 0 0 0 0 0 0 0 0 0 0 0 0 0 0 0 0 0
0 0 0 0 0 0 0 0 0 0 0 0 0 0 -0 0 0 0 0 0 0 0 0 0 0 0 0 0 0 0 0 0 0 0 0 0 0 0 0 0 0 0 0 0 0 0 0 0 0
0 0 0 0 0 0 0 0 0 0 0 0 0 0 0 0 0 0 0 0 0 0 0 0 0 0 0 0 0 0 0 0 0 0 0 0 0 0 0 0 0 0 0 0 0 0 0 0 0
0 0 0 0 0 0 0 0 0 0 0 0 0 0 0 0 0 0 0 0 0 0 0 0 0 0 0 0 0 0 0 0 0 0 0 0 0 0 0 0 0 0 0 0 0 0 0 0 0
0 0 0 0 0 0 0 0 0 0 0 0 0 0 -0 0 0 0 0 0 0 0 0 0 0 0 0 0 0 0 0 0 0 0 0 0 0 0 0 0 0 0 0 0 0 0 0 0 0
0 0 0 0 0 0 0 0 0 0 0 0 0 0 0 0 0 0 0 0 0 0 0 0 0 0 0 0 0 0 0 0 0 0 0 0 0 0 0 0 0 0 0 0 0 0 0 0 0
0 0 0 0 0 0 0 0 0 0 0 0 0 0 0 -0 0 0 0 0 0 0 0 0 0 0 0 0 0 0 0 0 0 0 0 0 0 0 0 0 0 0 0 0 0 0 0 0 0
0 0 0 0 0 0 0 0 0 0 0 0 0 0 -0 0 0 0 0 0 0 0 0 0 0 0 0 0 0 0 0 0 0 0 0 0 0 0 0 0 0 0 0 0 0 0 0 0 0
Wind_Speed_500mb
8 8 3 4 7 8 4 8 4 5 4 7 10 7 4 4 4 5 6 39 52 68 63 57 50 44 41 32 25 14 9 31 39 33 35 37 32 34 40 48 47 46 46 43 38 31 35 33 28
8 5 3 7 8 4 8 6 8 9 5 11 13 8 3 2 2 0 27 34 54 64 63 57 50 44 37 31 22 12 9 31 42 36 36 35 33 42 39 42 39 33 32 36 33 30 26 21 32
5 4 5 8 7 9 8 6 7 5 1 3 3 3 4 1 1 8 12 26 58 63 62 56 50 43 36 28 20 13 10 25 46 40 36 40 40 40 38 36 35 32 26 22 23 21 19 19 27
3 6 9 8 9 10 9 6 8 8 4 4 4 5 4 3 1 14 15 27 52 61 61 56 50 44 36 26 20 15 15 22 51 43 38 40 40 39 39 33 28 27 20 19 23 20 22 19 43
6 5 7 3 9 9 8 8 6 5 4 5 4 3 0 4 8 23 13 27 44 58 61 56 51 46 36 27 23 16 12 22 50 47 41 40 42 38 35 34 32 25 27 22 19 20 24 31 32
4 6 6 7 11 8 11 18 5 9 8 5 4 8 4 8 13 16 14 30 37 48 60 56 51 47 36 29 25 20 21 29 36 46 41 39 36 39 34 33 31 24 27 22 24 17 35 34 32
10 7 8 10 7 8 10 11 7 7 5 9 3 10 6 16 20 15 17 32 36 43 57 56 52 46 37 32 28 24 24 28 37 35 37 32 35 35 39 33 30 28 32 31 24 38 34 32 33
7 8 7 8 7 11 8 4 3 12 15 8 14 9 9 16 23 23 26 33 35 41 53 56 52 48 42 36 30 28 25 37 37 42 36 31 28 26 25 32 37 30 39 28 25 37 35 29 32
8 7 7 10 14 10 6 3 2 1 5 10 14 10 11 12 28 30 36 41 42 43 52 58 54 49 45 39 34 32 28 36 41 42 38 30 32 25 37 38 33 29 35 33 28 36 35 32 34
8 9 19 13 11 9 5 3 4 2 5 7 10 14 16 19 30 37 43 49 51 51 57 58 58 56 50 43 40 38 36 34 49 46 42 41 39 32 32 34 36 33 37 32 29 32 37 35 34
7 12 10 10 22 7 5 7 9 6 7 22 11 18 20 30 36 40 43 47 50 52 56 61 63 58 54 51 47 43 43 40 43 47 46 45 44 38 36 38 41 40 40 38 36 37 40 36 34
6 15 14 11 9 11 9 9 7 23 29 22 12 14 16 37 42 44 45 47 48 55 54 58 62 58 58 55 53 48 48 44 44 47 42 45 49 42 41 45 42 40 39 40 41 35 45 39 35
7 6 11 26 29 18 21 23 20 17 35 39 39 41 39 33 40 46 48 46 49 54 57 60 62 61 62 59 58 52 52 51 47 49 45 44 44 50 47 45 44 45 44 45 43 40 47 45 38
6 8 17 13 16 13 8 12 11 11 37 52 55 50 42 40 42 48 55 56 56 57 59 63 67 68 66 66 63 62 56 54 52 52 50 46 41 46 49 47 48 47 41 36 34 33 48 46 41
10 10 10 10 9 8 5 18 18 51 63 65 62 59 55 53 50 53 50 58 62 63 61 66 69 73 71 68 66 67 62 60 56 56 54 50 44 43 47 47 45 43 41 39 37 40 46 44 41
5 1 4 5 14 16 11 55 11 35 60 66 74 68 62 60 59 55 53 53 61 69 70 68 73 75 76 73 72 70 69 67 59 60 60 56 51 46 43 45 48 45 43 42 40 42 45 44 42
5 10 9 11 19 5 18 39 12 37 34 41 48 46 44 44 48 55 62 66 67 67 71 76 74 79 77 79 76 76 72 72 70 67 63 62 58 53 48 45 45 50 52 48 46 46 46 44 42
10 11 10 10 4 11 17 37 13 33 24 37 49 59 61 56 51 47 50 58 68 75 74 77 79 78 81 85 85 83 83 75 78 76 72 66 63 57 55 52 48 51 57 56 54 51 50 49 41
7 8 14 4 2 5 14 25 19 32 43 40 59 65 75 77 68 60 55 52 61 71 78 78 79 82 86 92 95 93 94 90 85 83 80 73 71 66 61 60 55 55 61 61 58 56 58 52 46
13 18 29 12 17 9 21 45 33 23 24 48 54 63 73 79 68 62 57 54 52 62 67 78 84 89 94 96 97 99 96 101 92 87 84 82 81 76 71 64 63 61 61 64 66 65 65 59 55
20 22 20 21 8 11 13 35 26 20 29 53 66 73 77 76 75 69 65 61 56 53 63 70 74 80 98 102 97 94 90 89 94 94 92 90 85 84 80 76 67 65 65 65 66 69 70 68 63
26 13 24 24 8 9 8 15 12 2 16 16 43 55 63 64 56 54 54 55 60 65 64 69 72 73 80 99 97 93 91 97 98 99 102 96 91 89 86 85 78 73 70 67 67 69 71 69 71
8 5 7 8 8 6 12 9 11 2 13 15 16 34 29 34 32 36 35 36 41 50 53 59 71 81 80 88 102 98 96 90 86 88 94 102 100 93 91 91 86 82 78 73 69 71 78 77 75
16 10 9 10 8 14 24 17 28 14 19 13 22 24 26 29 30 31 30 34 35 29 41 53 58 76 84 86 89 98 97 90 87 88 87 90 95 97 99 93 94 87 84 83 79 73 74 78 79
18 10 6 6 8 16 18 16 31 3 7 11 12 20 28 29 32 34 42 49 45 38 33 36 41 62 79 89 95 93 100 94 94 95 92 91 92 92 92 102 96 95 92 88 84 81 76 76 79
6 8 13 10 8 5 1 14 18 7 9 14 19 25 30 40 43 47 49 54 53 49 40 34 37 44 65 80 95 95 92 101 98 95 90 92 94 92 86 88 101 98 92 91 89 88 83 80 77
4 9 7 11 15 12 7 13 19 16 12 15 32 47 39 48 52 53 53 56 56 53 52 45 37 46 54 71 84 98 93 94 95 97 94 97 92 90 87 85 85 96 100 92 92 91 92 87 81
11 8 3 7 7 11 11 20 21 7 9 11 16 29 50 53 53 58 60 60 57 56 57 54 34 37 44 53 71 87 94 91 92 92 96 97 96 94 89 86 79 70 83 92 95 95 92 95 89
2 5 1 3 5 7 8 6 4 10 5 10 16 28 39 46 54 59 62 59 55 53 54 55 39 30 35 47 56 71 84 87 85 89 91 91 89 93 91 90 85 74 74 78 88 96 96 96 93
5 12 11 7 9 6 7 14 12 13 3 6 23 35 34 41 51 54 61 59 59 57 57 58 50 34 27 29 43 54 66 72 78 85 90 87 89 94 92 92 88 84 76 76 75 86 89 94 97
Wind_Direction_500mb
270 302 339 171 57 65 246 257 267 273 214 177 149 175 188 5 157 217 169 167 174 171 165 164 170 177 174 195 196 189 158 151 144 148 157 160 157 151 132 125 129 127 130 131 129 140 140 148 149
248 281 143 113 97 100 258 258 256 250 309 141 121 124 91 266 57 196 148 164 173 176 172 169 175 183 184 191 195 177 153 155 146 147 156 154 152 157 150 144 145 135 143 132 138 149 153 157 171
212 189 145 98 118 184 205 204 254 300 188 286 119 87 115 340 236 173 168 173 172 180 177 177 180 188 189 194 192 180 163 167 151 155 154 159 152 159 160 154 161 156 155 155 150 165 194 178 155
164 143 69 96 220 248 210 234 338 343 331 225 188 98 102 185 278 180 182 170 172 184 182 184 184 193 198 193 191 185 159 164 160 163 166 170 167 170 168 164 158 160 168 176 154 160 143 146 155
157 112 72 132 249 260 248 264 298 231 259 270 181 275 120 202 179 170 171 181 179 186 186 187 189 196 202 195 195 188 169 164 168 166 174 184 184 182 182 191 202 195 188 207 215 197 163 149 163
106 100 87 208 247 257 281 244 265 201 218 225 160 140 241 206 191 183 195 186 187 188 189 192 192 200 206 200 196 186 179 163 165 175 190 195 199 201 205 204 211 233 211 201 189 177 159 157 153
125 95 205 180 242 294 237 189 201 233 203 239 213 146 234 208 205 196 196 187 187 193 195 194 196 201 206 203 199 196 189 173 169 184 191 202 209 215 220 221 227 190 174 175 184 162 162 156 155
151 98 137 239 191 258 244 245 222 183 220 208 184 205 245 224 202 188 182 186 191 197 198 197 200 202 204 204 204 198 198 174 177 185 196 205 209 193 212 184 186 178 177 179 177 166 167 155 156
159 80 205 223 162 236 216 230 132 265 207 200 199 220 229 222 195 183 180 188 197 203 197 199 202 204 210 210 205 203 200 186 185 191 202 203 187 188 170 174 186 190 178 190 178 178 181 171 157
140 155 212 204 191 209 189 177 316 15 355 250 225 221 225 208 198 195 195 196 201 202 199 201 203 204 211 213 210 204 202 195 199 195 203 193 196 191 183 183 182 184 179 185 187 188 187 182 168
185 198 221 246 221 185 220 258 240 190 266 249 242 234 225 209 205 207 207 212 211 209 207 205 206 206 215 216 213 209 205 204 200 207 209 200 199 198 209 188 187 191 190 188 188 195 189 189 183
237 244 227 265 253 198 205 250 218 219 239 253 287 262 245 222 217 217 217 218 218 217 217 212 210 211 217 221 219 215 213 212 209 215 213 207 203 207 209 195 195 194 190 190 197 196 187 193 188
206 250 257 261 274 270 264 255 244 240 256 264 261 261 261 246 239 232 229 230 227 222 218 215 214 214 221 224 226 223 223 219 218 218 223 225 215 215 208 203 199 201 202 206 201 201 191 194 193
317 292 285 292 288 292 258 253 219 250 261 264 259 253 249 251 250 243 237 237 233 231 226 219 218 217 218 224 229 228 233 224 221 223 226 230 230 224 220 214 208 214 210 207 206 205 193 198 203
298 303 303 236 250 260 280 267 227 256 264 261 259 256 254 251 248 248 251 247 245 241 236 227 224 222 222 224 228 232 233 230 227 226 229 231 232 229 228 231 225 213 214 209 203 197 198 203 207
330 284 255 298 191 234 175 264 216 247 250 252 258 259 256 254 252 250 251 249 250 246 243 237 229 228 226 227 226 232 234 230 232 234 231 233 234 234 233 234 232 216 208 209 208 206 206 209 211
341 262 222 282 208 199 188 263 277 253 255 262 270 267 262 261 256 253 249 250 249 250 249 242 234 232 232 232 232 230 235 235 233 234 236 236 235 236 236 235 233 226 217 216 215 214 213 216 218
200 241 262 239 291 225 238 254 272 268 269 274 281 282 281 277 271 269 263 257 252 246 246 246 242 237 237 234 233 232 232 235 236 235 233 236 237 238 238 235 233 230 227 225 223 223 221 221 222
331 259 251 295 333 305 255 275 270 271 278 280 278 279 280 280 281 276 271 270 249 247 244 244 243 241 236 233 232 233 233 231 233 237 235 234 236 235 238 238 235 231 229 230 228 226 224 222 222
257 273 274 279 248 228 275 273 276 258 255 260 262 269 274 278 278 274 268 273 262 242 242 242 243 243 240 235 238 237 237 236 233 234 238 236 235 234 236 239 236 234 230 229 231 231 226 222 223
249 251 265 253 331 260 279 282 274 250 236 253 259 263 267 270 274 275 273 269 265 246 238 242 241 241 242 239 234 231 231 230 233 234 234 237 234 234 235 237 238 237 234 232 232 232 228 225 225
267 225 239 255 255 257 143 286 231 212 254 234 250 257 266 274 280 287 285 280 268 256 251 247 246 245 244 239 225 220 217 221 231 238 235 235 235 236 235 236 237 237 236 235 234 234 232 230 229
245 333 268 232 209 213 238 269 274 63 285 282 260 263 287 297 303 312 304 301 301 273 265 262 258 250 245 240 234 222 222 222 229 232 236 239 235 235 236 235 236 237 237 238 237 233 231 232 233
282 291 279 239 176 239 241 194 276 235 241 235 268 295 332 324 333 336 332 329 315 308 265 279 267 248 242 239 233 221 223 219 222 228 229 232 238 235 235 236 236 238 238 238 239 239 237 236 237
211 236 270 233 215 242 166 187 238 246 184 227 265 321 16 23 9 357 351 355 347 331 307 283 269 252 242 239 234 226 220 221 223 226 228 228 234 236 236 233 234 235 236 239 240 241 242 238 238
201 197 235 258 216 249 217 215 242 229 238 46 25 27 21 7 357 354 348 349 356 354 340 307 274 262 243 240 237 231 223 221 222 224 226 227 235 238 240 239 235 234 238 239 240 241 242 240 240
209 214 141 298 246 262 214 290 287 255 12 18 7 5 6 356 353 350 346 347 350 352 351 337 306 259 248 245 241 234 229 221 221 224 224 231 234 238 241 243 238 237 236 239 240 241 242 241 241
215 342 262 203 262 259 229 223 232 102 29 1 14 348 348 351 351 349 347 346 346 352 353 353 318 279 254 250 246 240 234 230 224 223 222 224 234 236 239 243 240 238 237 241 240 240 242 243 243
107 247 223 314 264 286 329 268 351 92 88 347 323 334 334 338 345 347 347 346 345 344 349 356 344 318 267 250 246 245 240 233 224 224 224 224 227 235 237 241 244 239 235 239 242 242 242 243 244
202 217 178 143 252 239 265 255 183 187 201 306 327 324 327 330 337 346 346 346 344 341 340 345 353 344 324 270 251 249 245 234 229 229 229 228 229 234 237 240 242 239 239 237 243 243 242 244 242
Wind_Speed_850mb
8 8 3 4 7 8 4 8 4 5 4 7 10 7 4 4 4 5 6 39 52 68 63 57 50 44 41 32 25 14 9 31 39 33 35 37 32 34 40 48 47 46 46 43 38 31 35 33 28
8 5 3 7 8 4 8 6 8 9 5 11 13 8 3 2 2 0 27 34 54 64 63 57 50 44 37 31 22 12 9 31 42 36 36 35 33 42 39 42 39 33 32 36 33 30 26 21 32
5 4 5 8 7 9 8 6 7 5 1 3 3 3 4 1 1 8 12 26 58 63 62 56 50 43 36 28 20 13 10 25 46 40 36 40 40 40 38 36 35 32 26 22 23 21 19 19 27
3 6 9 8 9 10 9 6 8 8 4 4 4 5 4 3 1 14 15 27 52 61 61 56 50 44 36 26 20 15 15 22 51 43 38 40 40 39 39 33 28 27 20 19 23 20 22 19 43
6 5 7 3 9 9 8 8 6 5 4 5 4 3 0 4 8 23 13 27 44 58 61 56 51 46 36 27 23 16 12 22 50 47 41 40 42 38 35 34 32 25 27 22 19 20 24 31 32
4 6 6 7 11 8 11 18 5 9 8 5 4 8 4 8 13 16 14 30 37 48 60 56 51 47 36 29 25 20 21 29 36 46 41 39 36 39 34 33 31 24 27 22 24 17 35 34 32
10 7 8 10 7 8 10 11 7 7 5 9 3 10 6 16 20 15 17 32 36 43 57 56 52 46 37 32 28 24 24 28 37 35 37 32 35 35 39 33 30 28 32 31 24 38 34 32 33
7 8 7 8 7 11 8 4 3 12 15 8 14 9 9 16 23 23 26 33 35 41 53 56 52 48 42 36 30 28 25 37 37 42 36 31 28 26 25 32 37 30 39 28 25 37 35 29 32
8 7 7 10 14 10 6 3 2 1 5 10 14 10 11 12 28 30 36 41 42 43 52 58 54 49 45 39 34 32 28 36 41 42 38 30 32 25 37 38 33 29 35 33 28 36 35 32 34
8 9 19 13 11 9 5 3 4 2 5 7 10 14 16 19 30 37 43 49 51 51 57 58 58 56 50 43 40 38 36 34 49 46 42 41 39 32 32 34 36 33 37 32 29 32 37 35 34
7 12 10 10 22 7 5 7 9 6 7 22 11 18 20 30 36 40 43 47 50 52 56 61 63 58 54 51 47 43 43 40 43 47 46 45 44 38 36 38 41 40 40 38 36 37 40 36 34
6 15 14 11 9 11 9 9 7 23 29 22 12 14 16 37 42 44 45 47 48 55 54 58 62 58 58 55 53 48 48 44 44 47 42 45 49 42 41 45 42 40 39 40 41 35 45 39 35
7 6 11 26 29 18 21 23 20 17 35 39 39 41 39 33 40 46 48 46 49 54 57 60 62 61 62 59 58 52 52 51 47 49 45 44 44 50 47 45 44 45 44 45 43 40 47 45 38
6 8 17 13 16 13 8 12 11 11 37 52 55 50 42 40 42 48 55 56 56 57 59 63 67 68 66 66 63 62 56 54 52 52 50 46 41 46 49 47 48 47 41 36 34 33 48 46 41
10 10 10 10 9 8 5 18 18 51 63 65 62 59 55 53 50 53 50 58 62 63 61 66 69 73 71 68 66 67 62 60 56 56 54 50 44 43 47 47 45 43 41 39 37 40 46 44 41
5 1 4 5 14 16 11 55 11 35 60 66 74 68 62 60 59 55 53 53 61 69 70 68 73 75 76 73 72 70 69 67 59 60 60 56 51 46 43 45 48 45 43 42 40 42 45 44 42
5 10 9 11 19 5 18 39 12 37 34 41 48 46 44 44 48 55 62 66 67 67 71 76 74 79 77 79 76 76 72 72 70 67 63 62 58 53 48 45 45 50 52 48 46 46 46 44 42
10 11 10 10 4 11 17 37 13 33 24 37 49 59 61 56 51 47 50 58 68 75 74 77 79 78 81 85 85 83 83 75 78 76 72 66 63 57 55 52 48 51 57 56 54 51 50 49 41
7 8 14 4 2 5 14 25 19 32 43 40 59 65 75 77 68 60 55 52 61 71 78 78 79 82 86 92 95 93 94 90 85 83 80 73 71 66 61 60 55 55 61 61 58 56 58 52 46
13 18 29 12 17 9 21 45 33 23 24 48 54 63 73 79 68 62 57 54 52 62 67 78 84 89 94 96 97 99 96 101 92 87 84 82 81 76 71 64 63 61 61 64 66 65 65 59 55
20 22 20 21 8 11 13 35 26 20 29 53 66 73 77 76 75 69 65 61 56 53 63 70 74 80 98 102 97 94 90 89 94 94 92 90 85 84 80 76 67 65 65 65 66 69 70 68 63
26 13 24 24 8 9 8 15 12 2 16 16 43 55 63 64 56 54 54 55 60 65 64 69 72 73 80 99 97 93 91 97 98 99 102 96 91 89 86 85 78 73 70 67 67 69 71 69 71
8 5 7 8 8 6 12 9 11 2 13 15 16 34 29 34 32 36 35 36 41 50 53 59 71 81 80 88 102 98 96 90 86 88 94 102 100 93 91 91 86 82 78 73 69 71 78 77 75
16 10 9 10 8 14 24 17 28 14 19 13 22 24 26 29 30 31 30 34 35 29 41 53 58 76 84 86 89 98 97 90 87 88 87 90 95 97 99 93 94 87 84 83 79 73 74 78 79
18 10 6 6 8 16 18 16 31 3 7 11 12 20 28 29 32 34 42 49 45 38 33 36 41 62 79 89 95 93 100 94 94 95 92 91 92 92 92 102 96 95 92 88 84 81 76 76 79
6 8 13 10 8 5 1 14 18 7 9 14 19 25 30 40 43 47 49 54 53 49 40 34 37 44 65 80 95 95 92 101 98 95 90 92 94 92 86 88 101 98 92 91 89 88 83 80 77
4 9 7 11 15 12 7 13 19 16 12 15 32 47 39 48 52 53 53 56 56 53 52 45 37 46 54 71 84 98 93 94 95 97 94 97 92 90 87 85 85 96 100 92 92 91 92 87 81
11 8 3 7 7 11 11 20 21 7 9 11 16 29 50 53 53 58 60 60 57 56 57 54 34 37 44 53 71 87 94 91 92 92 96 97 96 94 89 86 79 70 83 92 95 95 92 95 89
2 5 1 3 5 7 8 6 4 10 5 10 16 28 39 46 54 59 62 59 55 53 54 55 39 30 35 47 56 71 84 87 85 89 91 91 89 93 91 90 85 74 74 78 88 96 96 96 93
5 12 11 7 9 6 7 14 12 13 3 6 23 35 34 41 51 54 61 59 59 57 57 58 50 34 27 29 43 54 66 72 78 85 90 87 89 94 92 92 88 84 76 76 75 86 89 94 97
Wind_Direction_850mb
270 302 339 171 57 65 246 257 267 273 214 177 149 175 188 5 157 217 169 167 174 171 165 164 170 177 174 195 196 189 158 151 144 148 157 160 157 151 132 125 129 127 130 131 129 140 140 148 149
248 281 143 113 97 100 258 258 256 250 309 141 121 124 91 266 57 196 148 164 173 176 172 169 175 183 184 191 195 177 153 155 146 147 156 154 152 157 150 144 145 135 143 132 138 149 153 157 171
212 189 145 98 118 184 205 204 254 300 188 286 119 87 115 340 236 173 168 173 172 180 177 177 180 188 189 194 192 180 163 167 151 155 154 159 152 159 160 154 161 156 155 155 150 165 194 178 155
164 143 69 96 220 248 210 234 338 343 331 225 188 98 102 185 278 180 182 170 172 184 182 184 184 193 198 193 191 185 159 164 160 163 166 170 167 170 168 164 158 160 168 176 154 160 143 146 155
157 112 72 132 249 260 248 264 298 231 259 270 181 275 120 202 179 170 171 181 179 186 186 187 189 196 202 195 195 188 169 164 168 166 174 184 184 182 182 191 202 195 188 207 215 197 163 149 163
106 100 87 208 247 257 281 244 265 201 218 225 160 140 241 206 191 183 195 186 187 188 189 192 192 200 206 200 196 186 179 163 165 175 190 195 199 201 205 204 211 233 211 201 189 177 159 157 153
125 95 205 180 242 294 237 189 201 233 203 239 213 146 234 208 205 196 196 187 187 193 195 194 196 201 206 203 199 196 189 173 169 184 191 202 209 215 220 221 227 190 174 175 184 162 162 156 155
151 98 137 239 191 258 244 245 222 183 220 208 184 205 245 224 202 188 182 186 191 197 198 197 200 202 204 204 204 198 198 174 177 185 196 205 209 193 212 184 186 178 177 179 177 166 167 155 156
159 80 205 223 162 236 216 230 132 265 207 200 199 220 229 222 195 183 180 188 197 203 197 199 202 204 210 210 205 203 200 186 185 191 202 203 187 188 170 174 186 190 178 190 178 178 181 171 157
140 155 212 204 191 209 189 177 316 15 355 250 225 221 225 208 198 195 195 196 201 202 199 201 203 204 211 213 210 204 202 195 199 195 203 193 196 191 183 183 182 184 179 185 187 188 187 182 168
185 198 221 246 221 185 220 258 240 190 266 249 242 234 225 209 205 207 207 212 211 209 207 205 206 206 215 216 213 209 205 204 200 207 209 200 199 198 209 188 187 191 190 188 188 195 189 189 183
237 244 227 265 253 198 205 250 218 219 239 253 287 262 245 222 217 217 217 218 218 217 217 212 210 211 217 221 219 215 213 212 209 215 213 207 203 207 209 195 195 194 190 190 197 196 187 193 188
206 250 257 261 274 270 264 255 244 240 256 264 261 261 261 246 239 232 229 230 227 222 218 215 214 214 221 224 226 223 223 219 218 218 223 225 215 215 208 203 199 201 202 206 201 201 191 194 193
317 292 285 292 288 292 258 253 219 250 261 264 259 253 249 251 250 243 237 237 233 231 226 219 218 217 218 224 229 228 233 224 221 223 226 230 230 224 220 214 208 214 210 207 206 205 193 198 203
298 303 303 236 250 260 280 267 227 256 264 261 259 256 254 251 248 248 251 247 245 241 236 227 224 222 222 224 228 232 233 230 227 226 229 231 232 229 228 231 225 213 214 209 203 197 198 203 207
330 284 255 298 191 234 175 264 216 247 250 252 258 259 256 254 252 250 251 249 250 246 243 237 229 228 226 227 226 232 234 230 232 234 231 233 234 234 233 234 232 216 208 209 208 206 206 209 211
341 262 222 282 208 199 188 263 277 253 255 262 270 267 262 261 256 253 249 250 249 250 249 242 234 232 232 232 232 230 235 235 233 234 236 236 235 236 236 235 233 226 217 216 215 214 213 216 218
200 241 262 239 291 225 238 254 272 268 269 274 281 282 281 277 271 269 263 257 252 246 246 246 242 237 237 234 233 232 232 235 236 235 233 236 237 238 238 235 233 230 227 225 223 223 221 221 222
331 259 251 295 333 305 255 275 270 271 278 280 278 279 280 280 281 276 271 270 249 247 244 244 243 241 236 233 232 233 233 231 233 237 235 234 236 235 238 238 235 231 229 230 228 226 224 222 222
257 273 274 279 248 228 275 273 276 258 255 260 262 269 274 278 278 274 268 273 262 242 242 242 243 243 240 235 238 237 237 236 233 234 238 236 235 234 236 239 236 234 230 229 231 231 226 222 223
249 251 265 253 331 260 279 282 274 250 236 253 259 263 267 270 274 275 273 269 265 246 238 242 241 241 242 239 234 231 231 230 233 234 234 237 234 234 235 237 238 237 234 232 232 232 228 225 225
267 225 239 255 255 257 143 286 231 212 254 234 250 257 266 274 280 287 285 280 268 256 251 247 246 245 244 239 225 220 217 221 231 238 235 235 235 236 235 236 237 237 236 235 234 234 232 230 229
245 333 268 232 209 213 238 269 274 63 285 282 260 263 287 297 303 312 304 301 301 273 265 262 258 250 245 240 234 222 222 222 229 232 236 239 235 235 236 235 236 237 237 238 237 233 231 232 233
282 291 279 239 176 239 241 194 276 235 241 235 268 295 332 324 333 336 332 329 315 308 265 279 267 248 242 239 233 221 223 219 222 228 229 232 238 235 235 236 236 238 238 238 239 239 237 236 237
211 236 270 233 215 242 166 187 238 246 184 227 265 321 16 23 9 357 351 355 347 331 307 283 269 252 242 239 234 226 220 221 223 226 228 228 234 236 236 233 234 235 236 239 240 241 242 238 238
201 197 235 258 216 249 217 215 242 229 238 46 25 27 21 7 357 354 348 349 356 354 340 307 274 262 243 240 237 231 223 221 222 224 226 227 235 238 240 239 235 234 238 239 240 241 242 240 240
209 214 141 298 246 262 214 290 287 255 12 18 7 5 6 356 353 350 346 347 350 352 351 337 306 259 248 245 241 234 229 221 221 224 224 231 234 238 241 243 238 237 236 239 240 241 242 241 241
215 342 262 203 262 259 229 223 232 102 29 1 14 348 348 351 351 349 347 346 346 352 353 353 318 279 254 250 246 240 234 230 224 223 222 224 234 236 239 243 240 238 237 241 240 240 242 243 243
107 247 223 314 264 286 329 268 351 92 88 347 323 334 334 338 345 347 347 346 345 344 349 356 344 318 267 250 246 245 240 233 224 224 224 224 227 235 237 241 244 239 235 239 242 242 242 243 244
202 217 178 143 252 239 265 255 183 187 201 306 327 324 327 330 337 346 346 346 344 341 340 345 353 344 324 270 251 249 245 234 229 229 229 228 229 234 237 240 242 239 239 237 243 243 242 244 242